Location: Praha
(50.0830°N, 14.4670°E)
Time: 10:45:01
(UTC+02:00)

ISS - Pass Details

Date: 19 May 2019
Orbit: 407 x 410 km, 51.6° (Epoch: 21 May)

Event Time Altitude Azimuth Distance (km) Brightness Sun altitude
Rises 03:41:47 0° 286° (WNW) 2,339 -0.2 -11.5°
Reaches altitude 10° 03:44:01 10° 276° (W) 1,475 -1.3 -11.3°
Maximum altitude 03:46:57 30° 213° (SSW) 770 -3.0 -11.0°
Drops below altitude 10° 03:49:52 10° 151° (SSE) 1,469 -1.2 -10.7°
Sets 03:52:06 0° 140° (SE) 2,327 -0.1 -10.4°
